K5EBQ Weather Reports


time (UTC)temp
C
wind
direction
speed
KPH
gust
KPH
rain 1hr
cm
rain 24hr
cm
rain mn
cm
humidity
%
barometer
mb
20260506181548 28 219 0.0 0.0 0.00 0.00 0.00 80 1007.4
20260506180100 28 256 0.0 0.0 0.00 0.00 0.00 80 1007.8
20260506174545 28 161 0.0 0.0 0.00 0.00 0.00 82 1008.0
20260506173043 28 273 0.0 0.0 0.00 0.00 0.00 82 1008.3
20260506171541 27 205 0.0 0.0 0.00 0.00 0.00 84 1008.3
20260506170041 27 150 0.0 0.0 0.00 0.00 0.00 85 1008.4
20260506164535 27 183 0.0 0.0 0.00 0.00 0.00 85 1008.5
20260506163055 27 160 0.0 0.0 0.00 0.00 0.00 86 1008.4
20260506161533 27 184 0.0 0.0 0.00 0.00 0.00 86 1008.0
20260506160031 27 163 0.0 0.0 0.00 0.00 0.00 85 1008.0
20260506154527 27 147 0.0 0.0 0.00 0.00 0.00 86 1007.9
20260506153024 27 165 0.0 0.0 0.00 0.00 0.00 86 1007.9
20260506151523 27 165 0.0 0.0 0.00 0.00 0.00 87 1007.5
20260506150026 26 204 0.0 0.0 0.00 0.00 0.00 87 1007.4
20260506144520 26 125 0.0 0.0 0.00 0.00 0.00 88 1007.2
20260506143018 26 185 0.0 0.0 0.00 0.00 0.00 89 1006.9
20260506141515 26 115 0.0 0.0 0.00 0.00 0.00 90 1007.0
20260506140013 25 130 0.0 0.0 0.00 0.00 0.00 92 1007.2
20260506134509 25 159 0.0 0.0 0.00 0.00 0.00 93 1007.2
20260506133009 25 161 0.0 0.0 0.00 0.00 0.00 94 1007.2
20260506131513 25 161 0.0 0.0 0.00 0.00 0.00 94 1007.5
20260506130007 25 161 0.0 0.0 0.00 0.00 0.00 94 1007.3
20260506124506 24 130 0.0 0.0 0.00 0.00 0.00 94 1007.3
20260506123005 24 90 0.0 0.0 0.00 0.00 0.00 94 1007.2
20260506121504 24 130 0.0 0.0 0.00 0.00 0.00 94 1007.1
20260506120006 24 130 0.0 0.0 0.00 0.00 0.00 95 1006.9
20260506114504 24 130 0.0 0.0 0.00 0.00 0.00 94 1006.7
20260506113003 24 130 0.0 0.0 0.00 0.00 0.00 94 1006.6
20260506111502 24 151 0.0 0.0 0.00 0.00 0.00 94 1006.3
20260506110002 24 151 0.0 0.0 0.00 0.00 0.00 94 1006.1
20260506104603 24 151 0.0 0.0 0.00 0.00 0.00 93 1006.1
20260506104500 24 150 0.0 0.0 0.00 0.00 0.00 93 1006.1
20260506103100 24 215 0.0 0.0 0.00 0.00 0.00 93 1006.2
20260506101605 24 215 0.0 0.0 0.00 0.00 0.00 93 1006.1
20260506100058 24 148 0.0 0.0 0.00 0.00 0.00 92 1005.8
20260506094622 24 182 0.0 0.0 0.00 0.00 0.00 92 1005.8
20260506093057 24 155 0.0 0.0 0.00 0.00 0.00 92 1005.7
20260506091555 24 163 0.0 0.0 0.00 0.00 0.00 91 1005.7
20260506090053 25 172 0.0 0.0 0.00 0.00 0.00 91 1005.9
20260506084551 25 150 0.0 0.0 0.00 0.00 0.00 91 1005.9
20260506083049 25 159 0.0 0.0 0.00 0.00 0.00 91 1006.0
20260506081548 25 171 0.0 0.0 0.00 0.00 0.00 91 1006.1
20260506073046 25 167 0.0 0.0 0.00 0.00 0.00 91 1006.5
20260506071545 25 166 0.0 0.0 0.00 0.00 0.00 91 1006.7
20260506061539 25 124 0.0 0.0 0.00 0.00 0.00 90 1007.0
20260506044541 25 164 0.0 0.0 0.00 0.00 0.00 89 1007.0
20260506043031 25 165 0.0 0.0 0.00 0.00 0.00 88 1007.0
20260506041531 25 180 0.0 0.0 0.00 0.00 0.00 87 1006.8
20260506040050 26 181 0.0 0.0 0.00 0.00 0.00 86 1006.6
20260506034528 26 150 11.3 59.5 0.00 0.00 0.00 86 1006.8
20260506033029 26 190 4.8 54.7 0.00 0.00 0.00 86 1006.5
20260506031541 26 161 4.8 9.7 0.00 0.00 0.00 85 1006.1
20260506030027 26 86 8.0 32.2 0.00 0.00 0.00 85 1006.2
20260506024529 26 177 8.0 38.6 0.00 0.00 0.00 85 1006.0
20260506023027 26 192 4.8 17.7 0.00 0.00 0.00 85 1005.7
20260506021525 26 166 8.0 22.5 0.00 0.00 0.00 84 1005.6
20260506020025 26 188 8.0 20.9 0.00 0.00 0.00 84 1005.4
20260506014524 26 190 1.6 14.5 0.00 0.00 0.00 83 1005.2
20260506013024 26 219 6.4 16.1 0.00 0.00 0.00 82 1005.0
20260506011527 26 171 3.2 16.1 0.00 0.00 0.00 82 1004.6
20260506010022 27 171 3.2 25.7 0.00 0.00 0.00 81 1004.5
20260506004526 27 223 4.8 54.7 0.00 0.00 0.00 80 1004.4
20260506003021 27 180 6.4 12.9 0.00 0.00 0.00 80 1004.4
20260506001521 27 219 6.4 33.8 0.00 0.00 0.00 79 1004.2
20260506000022 27 181 3.2 14.5 0.00 0.00 0.00 79 1004.4
20260505234520 27 203 9.7 57.9 0.00 0.00 0.00 78 1004.2
20260505233019 27 155 12.9 72.4 0.00 0.00 0.00 77 1004.2
20260505231527 27 238 22.5 77.2 0.00 0.00 0.00 77 1004.2
20260505230026 28 226 22.5 75.6 0.00 0.00 0.00 77 1004.3
20260505224518 28 226 33.8 96.6 0.00 0.00 0.00 76 1004.3
20260505223016 28 196 19.3 125.5 0.00 0.00 0.00 76 1004.2
20260505221514 28 213 6.4 64.4 0.00 0.00 0.00 77 1004.4
20260505220013 28 203 4.8 16.1 0.00 0.00 0.00 76 1004.5
20260505214511 28 202 8.0 24.1 0.00 0.00 0.00 75 1004.7
20260505213010 28 207 3.2 19.3 0.00 0.00 0.00 77 1004.8
20260505211509 28 148 8.0 24.1 0.00 0.00 0.00 76 1004.9
20260505210008 28 219 6.4 16.1 0.00 0.00 0.00 77 1005.1
20260505204506 28 229 8.0 17.7 0.00 0.00 0.00 76 1005.2
20260505203005 28 223 8.0 27.4 0.00 0.00 0.00 76 1005.4
20260505201504 28 190 6.4 12.9 0.00 0.00 0.00 77 1005.8
20260505200001 28 186 3.2 17.7 0.00 0.00 0.00 78 1005.9
20260505194624 28 222 4.8 17.7 0.00 0.00 0.00 77 1006.1
20260505193100 28 230 6.4 16.1 0.00 0.00 0.00 76 1006.2
20260505191559 28 231 4.8 33.8 0.00 0.00 0.00 78 1006.3
20260505190057 27 204 4.8 14.5 0.00 0.00 0.00 80 1006.3
20260505184556 27 180 4.8 17.7 0.00 0.00 0.00 79 1006.6
20260505183055 28 95 9.7 20.9 0.00 0.00 0.00 77 1006.6